When you browse on this site, cookies collect data to enhance your experience and personalize the content and advertising you see.
Visit our Privacy Policy to learn more. By continuing to use the site, you agree to this use of cookies and data.
  • In United Kingdom
  • List of Countries
  • For 7 days
  • Water Temperature
  • Weather Map
  • Weather Widgets
  • user-avatar
    Login

    Hourly Weather Dahab

    Today, 28 January, Tuesday

    Time Temperature Precipitation Wind Pressure Humidity
    00:00 +9°C° 0 mm 0 mps 715 mmHg 53%
    01:00 +8°C° 0 mm 0 mps 715 mmHg 51%
    02:00 +8°C° 0 mm 0 mps 714 mmHg 49%
    03:00 +8°C° 0 mm 0 mps 714 mmHg 45%
    04:00 +8°C° 0 mm 0 mps 714 mmHg 41%
    05:00 +9°C° 0 mm 0 mps 714 mmHg 36%
    06:00 +12°C° 0 mm 1 mps 714 mmHg 30%
    07:00 +14°C° 0 mm 1 mps 715 mmHg 24%
    08:00 +16°C° 0 mm 1 mps 715 mmHg 18%
    09:00 +18°C° 0 mm 1 mps 715 mmHg 17%
    10:00 +20°C° 0 mm 1 mps 715 mmHg 16%
    11:00 +20°C° 0 mm 2 mps 715 mmHg 15%
    12:00 +20°C° 0 mm 2 mps 715 mmHg 17%
    13:00 +20°C° 0 mm 2 mps 714 mmHg 18%
    14:00 +21°C° 0 mm 2 mps 714 mmHg 19%
    15:00 +19°C° 0 mm 2 mps 714 mmHg 23%
    16:00 +18°C° 0 mm 2 mps 713 mmHg 27%
    17:00 +16°C° 0 mm 2 mps 713 mmHg 30%
    18:00 +15°C° 0 mm 2 mps 714 mmHg 32%
    19:00 +12°C° 0 mm 3 mps 714 mmHg 34%
    20:00 +11°C° 0 mm 3 mps 714 mmHg 36%
    21:00 +11°C° 0 mm 3 mps 714 mmHg 36%
    22:00 +10°C° 0 mm 3 mps 715 mmHg 36%
    23:00 +10°C° 0 mm 3 mps 715 mmHg 35%

    Tomorrow, 29 January, Wednesday

    Time Temperature Precipitation Wind Pressure Humidity
    00:00 +10°C° 0 mm 3 mps 715 mmHg 40%
    01:00 +8°C° 0 mm 4 mps 714 mmHg 44%
    02:00 +8°C° 0 mm 4 mps 714 mmHg 48%
    03:00 +7°C° 0 mm 4 mps 714 mmHg 52%
    04:00 +7°C° 0 mm 4 mps 715 mmHg 57%
    05:00 +7°C° 0 mm 4 mps 715 mmHg 61%
    06:00 +8°C° 0 mm 4 mps 715 mmHg 54%
    07:00 +11°C° 0 mm 4 mps 716 mmHg 47%
    08:00 +12°C° 0 mm 3 mps 717 mmHg 40%
    09:00 +13°C° 0 mm 4 mps 717 mmHg 36%
    10:00 +15°C° 0 mm 4 mps 717 mmHg 33%
    11:00 +16°C° 0 mm 5 mps 717 mmHg 29%
    12:00 +17°C° 0 mm 5 mps 717 mmHg 28%
    13:00 +19°C° 0 mm 5 mps 717 mmHg 28%
    14:00 +19°C° 0 mm 5 mps 717 mmHg 27%
    15:00 +17°C° 0 mm 5 mps 716 mmHg 32%
    16:00 +17°C° 0 mm 4 mps 716 mmHg 38%
    17:00 +15°C° 0 mm 4 mps 716 mmHg 43%
    18:00 +13°C° 0 mm 4 mps 716 mmHg 48%
    19:00 +12°C° 0 mm 3 mps 717 mmHg 53%
    20:00 +10°C° 0 mm 3 mps 717 mmHg 58%
    21:00 +10°C° 0 mm 3 mps 717 mmHg 57%
    22:00 +9°C° 0 mm 3 mps 717 mmHg 55%
    23:00 +9°C° 0 mm 3 mps 718 mmHg 53%

    Day after tomorrow, 30 January, Thursday

    Time Temperature Precipitation Wind Pressure Humidity
    00:00 +9°C° 0 mm 2 mps 717 mmHg 53%
    01:00 +8°C° 0 mm 2 mps 717 mmHg 54%
    02:00 +8°C° 0 mm 2 mps 717 mmHg 54%
    03:00 +7°C° 0 mm 2 mps 716 mmHg 53%
    04:00 +7°C° 0 mm 2 mps 716 mmHg 53%
    05:00 +7°C° 0 mm 2 mps 716 mmHg 53%
    06:00 +9°C° 0 mm 2 mps 717 mmHg 44%
    07:00 +12°C° 0 mm 2 mps 717 mmHg 34%
    08:00 +15°C° 0 mm 2 mps 718 mmHg 25%
    09:00 +16°C° 0 mm 2 mps 718 mmHg 24%
    10:00 +17°C° 0 mm 2 mps 718 mmHg 23%
    11:00 +19°C° 0 mm 3 mps 718 mmHg 22%
    12:00 +19°C° 0 mm 3 mps 717 mmHg 24%
    13:00 +19°C° 0 mm 3 mps 717 mmHg 26%
    14:00 +20°C° 0 mm 3 mps 716 mmHg 29%
    15:00 +18°C° 0 mm 2 mps 716 mmHg 34%
    16:00 +17°C° 0 mm 2 mps 715 mmHg 39%
    17:00 +16°C° 0 mm 1 mps 715 mmHg 44%
    18:00 +14°C° 0 mm 1 mps 715 mmHg 49%
    19:00 +13°C° 0 mm 1 mps 715 mmHg 53%
    20:00 +11°C° 0 mm 1 mps 715 mmHg 57%
    21:00 +11°C° 0 mm 1 mps 715 mmHg 57%
    22:00 +10°C° 0 mm 1 mps 715 mmHg 56%
    23:00 +10°C° 0 mm 1 mps 715 mmHg 56%

    31 January, Friday

    Time Temperature Precipitation Wind Pressure Humidity
    00:00 +9°C° 0 mm 2 mps 715 mmHg 54%
    01:00 +8°C° 0 mm 2 mps 715 mmHg 53%
    02:00 +8°C° 0 mm 2 mps 714 mmHg 51%
    03:00 +8°C° 0 mm 2 mps 714 mmHg 52%
    04:00 +7°C° 0 mm 2 mps 714 mmHg 52%
    05:00 +7°C° 0 mm 2 mps 714 mmHg 53%
    06:00 +9°C° 0 mm 2 mps 715 mmHg 46%
    07:00 +12°C° 0 mm 2 mps 715 mmHg 38%
    08:00 +13°C° 0 mm 3 mps 716 mmHg 31%
    09:00 +14°C° 0 mm 3 mps 716 mmHg 28%
    10:00 +17°C° 0 mm 3 mps 716 mmHg 25%
    11:00 +18°C° 0 mm 4 mps 715 mmHg 22%
    12:00 +19°C° 0 mm 4 mps 715 mmHg 23%
    13:00 +19°C° 0 mm 5 mps 715 mmHg 25%
    14:00 +19°C° 0 mm 6 mps 714 mmHg 26%
    15:00 +17°C° 0 mm 6 mps 714 mmHg 32%
    16:00 +16°C° 0 mm 5 mps 714 mmHg 37%
    17:00 +15°C° 0 mm 5 mps 714 mmHg 43%
    18:00 +14°C° 0 mm 5 mps 714 mmHg 50%
    19:00 +12°C° 0 mm 4 mps 714 mmHg 58%
    20:00 +11°C° 0 mm 4 mps 714 mmHg 66%
    21:00 +10°C° 0 mm 4 mps 715 mmHg 65%
    22:00 +10°C° 0 mm 4 mps 715 mmHg 64%
    23:00 +10°C° 0 mm 4 mps 715 mmHg 64%

    1 February, Saturday

    Time Temperature Precipitation Wind Pressure Humidity
    00:00 +9°C° 0 mm 3 mps 714 mmHg 60%
    01:00 +8°C° 0 mm 3 mps 714 mmHg 56%
    02:00 +8°C° 0 mm 3 mps 714 mmHg 52%
    03:00 +7°C° 0 mm 3 mps 714 mmHg 49%
    04:00 +7°C° 0 mm 3 mps 714 mmHg 47%
    05:00 +7°C° 0 mm 3 mps 714 mmHg 45%
    06:00 +9°C° 0 mm 3 mps 715 mmHg 37%
    07:00 +11°C° 0 mm 3 mps 716 mmHg 29%
    08:00 +13°C° 0 mm 3 mps 716 mmHg 21%
    09:00 +14°C° 0 mm 3 mps 716 mmHg 19%
    10:00 +17°C° 0 mm 4 mps 716 mmHg 16%
    11:00 +19°C° 0 mm 4 mps 716 mmHg 14%
    12:00 +19°C° 0 mm 5 mps 716 mmHg 15%
    13:00 +20°C° 0 mm 5 mps 716 mmHg 16%
    14:00 +20°C° 0 mm 5 mps 715 mmHg 18%
    15:00 +19°C° 0 mm 5 mps 715 mmHg 21%
    16:00 +18°C° 0 mm 4 mps 715 mmHg 25%
    17:00 +15°C° 0 mm 4 mps 715 mmHg 29%
    18:00 +14°C° 0 mm 3 mps 715 mmHg 31%
    19:00 +12°C° 0 mm 3 mps 715 mmHg 34%
    20:00 +11°C° 0 mm 3 mps 715 mmHg 37%
    21:00 +10°C° 0 mm 3 mps 715 mmHg 34%
    22:00 +10°C° 0 mm 3 mps 715 mmHg 32%
    23:00 +9°C° 0 mm 3 mps 715 mmHg 30%

    2 February, Sunday

    Time Temperature Precipitation Wind Pressure Humidity
    00:00 +9°C° 0 mm 3 mps 715 mmHg 31%
    01:00 +9°C° 0 mm 3 mps 714 mmHg 31%
    02:00 +8°C° 0 mm 3 mps 714 mmHg 32%
    03:00 +8°C° 0 mm 3 mps 714 mmHg 33%
    04:00 +8°C° 0 mm 3 mps 714 mmHg 34%
    05:00 +8°C° 0 mm 3 mps 714 mmHg 35%
    06:00 +10°C° 0 mm 3 mps 714 mmHg 29%
    07:00 +12°C° 0 mm 3 mps 715 mmHg 23%
    08:00 +14°C° 0 mm 3 mps 715 mmHg 17%
    09:00 +17°C° 0 mm 3 mps 715 mmHg 16%
    10:00 +19°C° 0 mm 3 mps 716 mmHg 15%
    11:00 +20°C° 0 mm 4 mps 716 mmHg 15%
    12:00 +20°C° 0 mm 4 mps 715 mmHg 17%
    13:00 +21°C° 0 mm 4 mps 715 mmHg 19%
    14:00 +21°C° 0 mm 4 mps 714 mmHg 20%
    15:00 +19°C° 0 mm 3 mps 714 mmHg 25%
    16:00 +18°C° 0 mm 2 mps 714 mmHg 30%
    17:00 +17°C° 0 mm 2 mps 713 mmHg 35%
    18:00 +15°C° 0 mm 2 mps 714 mmHg 38%
    19:00 +14°C° 0 mm 2 mps 714 mmHg 42%
    20:00 +12°C° 0 mm 2 mps 714 mmHg 46%
    21:00 +12°C° 0 mm 2 mps 714 mmHg 45%
    22:00 +10°C° 0 mm 2 mps 714 mmHg 45%
    23:00 +10°C° 0 mm 2 mps 714 mmHg 44%
    Show more